Time,TemperatureF,DewpointF,PressureIn,WindDirection,WindDirectionDegrees,WindSpeedMPH,WindSpeedGustMPH,Humidity,HourlyPrecipIn,Conditions,Clouds,dailyrainin,SoftwareType,DateUTC
2013-03-14 00:03:00,60.1,39.2,30.35,NE,45,4.0,5.0,46,0.00,,,0.00,meteohub,2013-03-14 05:03:00,
2013-03-14 00:08:00,59.9,39.0,30.36,NE,45,4.0,8.0,46,0.00,,,0.00,meteohub,2013-03-14 05:08:00,
2013-03-14 00:13:00,59.7,38.8,30.35,NE,45,6.0,8.0,46,0.00,,,0.00,meteohub,2013-03-14 05:13:00,
2013-03-14 00:18:00,59.9,39.0,30.35,NE,45,5.0,8.0,46,0.00,,,0.00,meteohub,2013-03-14 05:18:00,
2013-03-14 00:23:00,60.1,39.2,30.35,East,90,8.0,9.0,46,0.00,,,0.00,meteohub,2013-03-14 05:23:00,
2013-03-14 00:28:00,60.1,38.7,30.35,SE,135,8.0,9.0,45,0.00,,,0.00,meteohub,2013-03-14 05:28:00,
2013-03-14 00:32:00,60.1,39.2,30.35,East,90,7.0,10.0,46,0.00,,,0.00,meteohub,2013-03-14 05:32:00,
2013-03-14 00:33:00,59.9,39.0,30.35,East,90,7.0,10.0,46,0.00,,,0.00,meteohub,2013-03-14 05:33:00,
2013-03-14 00:39:00,59.9,39.0,30.35,East,90,8.0,10.0,46,0.00,,,0.00,meteohub,2013-03-14 05:39:00,
2013-03-14 00:44:00,59.7,38.8,30.35,East,90,9.0,10.0,46,0.00,,,0.00,meteohub,2013-03-14 05:44:00,
2013-03-14 00:49:00,59.5,38.7,30.35,ENE,68,4.0,10.0,46,0.00,,,0.00,meteohub,2013-03-14 05:49:00,
2013-03-14 00:54:00,59.4,39.2,30.35,NE,45,5.0,10.0,47,0.00,,,0.00,meteohub,2013-03-14 05:54:00,
2013-03-14 00:59:00,59.2,39.0,30.35,NE,45,5.0,9.0,47,0.00,,,0.00,meteohub,2013-03-14 05:59:00,
2013-03-14 01:04:00,59.2,39.0,30.35,South,180,6.0,9.0,47,0.00,,,0.00,meteohub,2013-03-14 06:04:00,
2013-03-14 01:09:00,58.6,39.0,30.35,NE,45,4.0,8.0,48,0.00,,,0.00,meteohub,2013-03-14 06:09:00,
2013-03-14 01:14:00,58.3,38.7,30.34,NE,45,4.0,8.0,48,0.00,,,0.00,meteohub,2013-03-14 06:14:00,
2013-03-14 01:19:00,58.3,38.7,30.34,East,90,7.0,7.0,48,0.00,,,0.00,meteohub,2013-03-14 06:19:00,
2013-03-14 01:24:00,58.3,38.1,30.34,ENE,68,4.0,8.0,47,0.00,,,0.00,meteohub,2013-03-14 06:24:00,
2013-03-14 01:29:00,58.1,37.9,30.34,NE,45,9.0,9.0,47,0.00,,,0.00,meteohub,2013-03-14 06:29:00,
2013-03-14 01:34:00,57.9,37.2,30.34,North,0,7.0,9.0,46,0.00,,,0.00,meteohub,2013-03-14 06:34:00,
2013-03-14 01:39:00,57.7,37.0,30.34,ENE,68,5.0,9.0,46,0.00,,,0.00,meteohub,2013-03-14 06:39:00,
2013-03-14 01:44:00,57.6,36.9,30.34,SE,135,6.0,10.0,46,0.00,,,0.00,meteohub,2013-03-14 06:44:00,
2013-03-14 01:49:00,57.4,36.1,30.34,East,90,7.0,10.0,45,0.00,,,0.00,meteohub,2013-03-14 06:49:00,
2013-03-14 01:54:00,57.2,36.0,30.34,NE,45,5.0,11.0,45,0.00,,,0.00,meteohub,2013-03-14 06:54:00,
2013-03-14 01:59:00,57.2,35.4,30.34,East,90,5.0,11.0,44,0.00,,,0.00,meteohub,2013-03-14 06:59:00,
2013-03-14 02:04:00,57.0,36.0,30.34,East,90,5.0,11.0,45,0.00,,,0.00,meteohub,2013-03-14 07:04:00,
2013-03-14 02:09:00,56.8,35.8,30.33,East,90,7.0,9.0,45,0.00,,,0.00,meteohub,2013-03-14 07:09:00,
2013-03-14 02:14:00,56.7,35.6,30.34,East,90,4.0,9.0,45,0.00,,,0.00,meteohub,2013-03-14 07:14:00,
2013-03-14 02:19:00,56.5,35.4,30.34,East,90,5.0,8.0,45,0.00,,,0.00,meteohub,2013-03-14 07:19:00,
2013-03-14 02:25:00,56.3,35.2,30.34,NE,45,7.0,10.0,45,0.00,,,0.00,meteohub,2013-03-14 07:25:00,
2013-03-14 02:30:00,56.1,35.1,30.34,ENE,68,4.0,10.0,45,0.00,,,0.00,meteohub,2013-03-14 07:30:00,
2013-03-14 02:35:00,55.8,34.7,30.34,East,90,4.0,10.0,45,0.00,,,0.00,meteohub,2013-03-14 07:35:00,
2013-03-14 02:40:00,55.8,35.2,30.34,NE,45,2.0,7.0,46,0.00,,,0.00,meteohub,2013-03-14 07:40:00,
2013-03-14 02:45:00,55.4,34.9,30.34,NE,45,4.0,7.0,46,0.00,,,0.00,meteohub,2013-03-14 07:45:00,
2013-03-14 02:50:00,55.2,35.4,30.33,NE,45,8.0,8.0,47,0.00,,,0.00,meteohub,2013-03-14 07:50:00,
2013-03-14 02:55:00,55.4,34.9,30.34,ENE,68,6.0,8.0,46,0.00,,,0.00,meteohub,2013-03-14 07:55:00,
2013-03-14 03:00:00,55.8,35.2,30.33,NE,45,6.0,8.0,46,0.00,,,0.00,meteohub,2013-03-14 08:00:00,
2013-03-14 03:05:00,55.8,35.2,30.33,East,90,9.0,9.0,46,0.00,,,0.00,meteohub,2013-03-14 08:05:00,
2013-03-14 03:10:00,55.8,35.8,30.33,North,0,6.0,11.0,47,0.00,,,0.00,meteohub,2013-03-14 08:10:00,
2013-03-14 03:15:00,55.6,36.1,30.33,NE,45,7.0,12.0,48,0.00,,,0.00,meteohub,2013-03-14 08:15:00,
2013-03-14 03:20:00,55.6,36.7,30.33,SE,135,6.0,12.0,49,0.00,,,0.00,meteohub,2013-03-14 08:20:00,
2013-03-14 03:25:00,55.4,37.0,30.33,East,90,6.0,12.0,50,0.00,,,0.00,meteohub,2013-03-14 08:25:00,
2013-03-14 03:30:00,55.4,37.6,30.32,East,90,7.0,11.0,51,0.00,,,0.00,meteohub,2013-03-14 08:30:00,
2013-03-14 03:35:00,55.4,37.6,30.32,East,90,6.0,11.0,51,0.00,,,0.00,meteohub,2013-03-14 08:35:00,
2013-03-14 03:40:00,55.2,38.3,30.32,South,180,9.0,11.0,53,0.00,,,0.00,meteohub,2013-03-14 08:40:00,
2013-03-14 03:45:00,55.0,38.3,30.32,NE,45,8.0,10.0,53,0.00,,,0.00,meteohub,2013-03-14 08:45:00,
2013-03-14 03:50:00,55.0,38.7,30.32,SE,135,8.0,10.0,54,0.00,,,0.00,meteohub,2013-03-14 08:50:00,
2013-03-14 03:55:00,54.9,38.5,30.32,ENE,68,2.0,9.0,54,0.00,,,0.00,meteohub,2013-03-14 08:55:00,
2013-03-14 04:00:00,54.5,39.6,30.32,NE,45,8.0,8.0,57,0.00,,,0.00,meteohub,2013-03-14 09:00:00,
2013-03-14 04:05:00,54.7,40.3,30.32,NW,315,4.0,8.0,58,0.00,,,0.00,meteohub,2013-03-14 09:05:00,
2013-03-14 04:10:00,54.9,41.2,30.32,SE,135,6.0,13.0,60,0.00,,,0.00,meteohub,2013-03-14 09:10:00,
2013-03-14 04:15:00,54.7,40.6,30.32,NE,45,4.0,13.0,59,0.00,,,0.00,meteohub,2013-03-14 09:15:00,
2013-03-14 04:20:00,54.7,41.5,30.32,NE,45,6.0,13.0,61,0.00,,,0.00,meteohub,2013-03-14 09:20:00,
2013-03-14 04:25:00,54.5,41.4,30.32,NE,45,3.0,10.0,61,0.00,,,0.00,meteohub,2013-03-14 09:25:00,
2013-03-14 04:30:00,54.3,41.2,30.32,East,90,4.0,10.0,61,0.00,,,0.00,meteohub,2013-03-14 09:30:00,
2013-03-14 04:35:00,54.1,41.4,30.32,East,90,5.0,10.0,62,0.00,,,0.00,meteohub,2013-03-14 09:35:00,
2013-03-14 04:41:00,54.0,41.7,30.32,NE,45,4.0,10.0,63,0.00,,,0.00,meteohub,2013-03-14 09:41:00,
2013-03-14 04:46:00,54.0,42.1,30.32,NE,45,4.0,10.0,64,0.00,,,0.00,meteohub,2013-03-14 09:46:00,
2013-03-14 04:51:00,53.8,41.9,30.32,NE,45,4.0,7.0,64,0.00,,,0.00,meteohub,2013-03-14 09:51:00,
2013-03-14 04:56:00,53.6,41.7,30.32,NE,45,3.0,7.0,64,0.00,,,0.00,meteohub,2013-03-14 09:56:00,
2013-03-14 05:01:00,53.2,42.3,30.33,NNW,338,2.0,5.0,66,0.00,,,0.00,meteohub,2013-03-14 10:01:00,
2013-03-14 05:06:00,53.1,42.1,30.33,East,90,6.0,6.0,66,0.00,,,0.00,meteohub,2013-03-14 10:06:00,
2013-03-14 05:11:00,52.9,42.3,30.32,SE,135,4.0,6.0,67,0.00,,,0.00,meteohub,2013-03-14 10:11:00,
2013-03-14 05:16:00,52.9,42.6,30.32,East,90,2.0,6.0,68,0.00,,,0.00,meteohub,2013-03-14 10:16:00,
2013-03-14 05:21:00,52.9,42.3,30.32,East,90,2.0,6.0,67,0.00,,,0.00,meteohub,2013-03-14 10:21:00,
2013-03-14 05:26:00,52.5,42.3,30.32,NE,45,2.0,4.0,68,0.00,,,0.00,meteohub,2013-03-14 10:26:00,
2013-03-14 05:31:00,52.3,42.1,30.32,NE,45,2.0,3.0,68,0.00,,,0.00,meteohub,2013-03-14 10:31:00,
2013-03-14 05:37:00,52.2,42.3,30.32,East,90,4.0,4.0,69,0.00,,,0.00,meteohub,2013-03-14 10:37:00,
2013-03-14 05:42:00,51.8,41.9,30.33,NE,45,3.0,4.0,69,0.00,,,0.00,meteohub,2013-03-14 10:42:00,
2013-03-14 05:47:00,51.6,42.4,30.33,NE,45,2.0,4.0,71,0.00,,,0.00,meteohub,2013-03-14 10:47:00,
2013-03-14 05:52:00,51.4,42.4,30.33,East,90,4.0,4.0,71,0.00,,,0.00,meteohub,2013-03-14 10:52:00,
2013-03-14 05:57:00,51.8,43.0,30.33,East,90,4.0,5.0,72,0.00,,,0.00,meteohub,2013-03-14 10:57:00,
2013-03-14 06:02:00,52.2,43.3,30.33,NE,45,2.0,8.0,72,0.00,,,0.00,meteohub,2013-03-14 11:02:00,
2013-03-14 06:07:00,52.0,43.2,30.33,NE,45,2.0,8.0,72,0.00,,,0.00,meteohub,2013-03-14 11:07:00,
2013-03-14 06:12:00,51.8,43.3,30.33,West,270,2.0,7.0,73,0.00,,,0.00,meteohub,2013-03-14 11:12:00,
2013-03-14 06:17:00,51.3,43.3,30.34,NNE,23,2.0,4.0,74,0.00,,,0.00,meteohub,2013-03-14 11:17:00,
2013-03-14 06:22:00,51.3,43.5,30.34,NW,315,2.0,4.0,75,0.00,,,0.00,meteohub,2013-03-14 11:22:00,
2013-03-14 06:27:00,50.9,43.3,30.34,SE,135,2.0,3.0,75,0.00,,,0.00,meteohub,2013-03-14 11:27:00,
2013-03-14 06:32:00,50.9,43.5,30.34,East,90,2.0,3.0,76,0.00,,,0.00,meteohub,2013-03-14 11:32:00,
2013-03-14 06:37:00,51.6,45.3,30.34,SE,135,4.0,4.0,79,0.00,,,0.00,meteohub,2013-03-14 11:37:00,
2013-03-14 06:42:00,52.0,45.3,30.34,SE,135,4.0,9.0,78,0.00,,,0.00,meteohub,2013-03-14 11:42:00,
2013-03-14 06:47:00,52.0,45.0,30.35,South,180,4.0,9.0,77,0.00,,,0.00,meteohub,2013-03-14 11:47:00,
2013-03-14 06:52:00,52.2,45.5,30.35,East,90,4.0,4.0,78,0.00,,,0.00,meteohub,2013-03-14 11:52:00,
2013-03-14 06:57:00,52.5,46.6,30.35,ESE,113,6.0,7.0,80,0.00,,,0.00,meteohub,2013-03-14 11:57:00,
2013-03-14 07:02:00,52.7,46.8,30.35,NE,45,5.0,7.0,80,0.00,,,0.00,meteohub,2013-03-14 12:02:00,
2013-03-14 07:08:00,52.5,46.9,30.35,East,90,4.0,7.0,81,0.00,,,0.00,meteohub,2013-03-14 12:08:00,
2013-03-14 07:13:00,52.7,47.3,30.35,NE,45,3.0,7.0,82,0.00,,,0.00,meteohub,2013-03-14 12:13:00,
2013-03-14 07:18:00,52.5,47.1,30.35,NE,45,3.0,8.0,82,0.00,,,0.00,meteohub,2013-03-14 12:18:00,
2013-03-14 07:23:00,52.3,46.9,30.35,NE,45,3.0,8.0,82,0.00,,,0.00,meteohub,2013-03-14 12:23:00,
2013-03-14 07:28:00,52.2,46.8,30.35,SE,135,4.0,8.0,82,0.00,,,0.00,meteohub,2013-03-14 12:28:00,
2013-03-14 07:33:00,52.2,47.1,30.36,NW,315,2.0,6.0,83,0.00,,,0.00,meteohub,2013-03-14 12:33:00,
2013-03-14 07:38:00,52.0,46.9,30.36,WNW,293,2.0,7.0,83,0.00,,,0.00,meteohub,2013-03-14 12:38:00,
2013-03-14 07:43:00,52.0,47.3,30.36,East,90,2.0,7.0,84,0.00,,,0.00,meteohub,2013-03-14 12:43:00,
2013-03-14 07:48:00,51.6,46.9,30.36,NE,45,1.0,4.0,84,0.00,,,0.00,meteohub,2013-03-14 12:48:00,
2013-03-14 07:53:00,51.1,46.4,30.36,NW,315,1.0,4.0,84,0.00,,,0.00,meteohub,2013-03-14 12:53:00,
2013-03-14 07:58:00,50.5,45.9,30.37,NW,315,2.0,4.0,84,0.00,,,0.00,meteohub,2013-03-14 12:58:00,
2013-03-14 08:03:00,50.4,45.7,30.37,NW,315,1.0,2.0,84,0.00,,,0.00,meteohub,2013-03-14 13:03:00,
2013-03-14 08:08:00,50.0,45.3,30.37,NW,315,2.0,2.0,84,0.00,,,0.00,meteohub,2013-03-14 13:08:00,
2013-03-14 08:13:00,50.0,46.0,30.38,NE,45,1.0,2.0,86,0.00,,,0.00,meteohub,2013-03-14 13:13:00,
2013-03-14 08:18:00,50.4,46.6,30.38,North,0,2.0,2.0,87,0.00,,,0.00,meteohub,2013-03-14 13:18:00,
2013-03-14 08:24:00,50.5,47.1,30.38,NE,45,0.0,2.0,88,0.00,,,0.00,meteohub,2013-03-14 13:24:00,
2013-03-14 08:29:00,50.7,47.3,30.38,NE,45,2.0,2.0,88,0.00,,,0.00,meteohub,2013-03-14 13:29:00,
2013-03-14 08:34:00,51.3,48.2,30.38,North,0,2.0,2.0,89,0.00,,,0.00,meteohub,2013-03-14 13:34:00,
2013-03-14 08:39:00,52.0,48.9,30.38,North,0,1.0,2.0,89,0.00,,,0.00,meteohub,2013-03-14 13:39:00,
2013-03-14 08:44:00,52.3,48.9,30.38,SE,135,1.0,2.0,88,0.00,,,0.00,meteohub,2013-03-14 13:44:00,
2013-03-14 08:49:00,53.2,49.8,30.38,NE,45,1.0,2.0,88,0.00,,,0.00,meteohub,2013-03-14 13:49:00,
2013-03-14 08:54:00,54.0,49.8,30.38,East,90,3.0,3.0,86,0.00,,,0.00,meteohub,2013-03-14 13:54:00,
2013-03-14 08:59:00,54.7,50.2,30.39,NE,45,2.0,3.0,85,0.00,,,0.00,meteohub,2013-03-14 13:59:00,
2013-03-14 09:04:00,54.7,50.2,30.38,East,90,4.0,4.0,85,0.00,,,0.00,meteohub,2013-03-14 14:04:00,
2013-03-14 09:09:00,55.9,51.3,30.38,ENE,68,3.0,4.0,84,0.00,,,0.00,meteohub,2013-03-14 14:09:00,
2013-03-14 09:14:00,56.7,51.6,30.39,NE,45,5.0,5.0,83,0.00,,,0.00,meteohub,2013-03-14 14:14:00,
2013-03-14 09:19:00,57.6,51.8,30.39,NE,45,6.0,6.0,81,0.00,,,0.00,meteohub,2013-03-14 14:19:00,
2013-03-14 09:24:00,58.5,52.0,30.39,NE,45,4.0,6.0,79,0.00,,,0.00,meteohub,2013-03-14 14:24:00,
2013-03-14 09:29:00,58.5,51.6,30.39,NE,45,8.0,8.0,78,0.00,,,0.00,meteohub,2013-03-14 14:29:00,
2013-03-14 09:34:00,58.6,52.2,30.39,East,90,7.0,11.0,79,0.00,,,0.00,meteohub,2013-03-14 14:34:00,
2013-03-14 09:40:00,59.7,52.2,30.39,ENE,68,6.0,11.0,76,0.00,,,0.00,meteohub,2013-03-14 14:40:00,
2013-03-14 09:45:00,60.1,52.2,30.40,NE,45,7.0,11.0,75,0.00,,,0.00,meteohub,2013-03-14 14:45:00,
2013-03-14 09:50:00,61.0,52.0,30.40,East,90,6.0,9.0,72,0.00,,,0.00,meteohub,2013-03-14 14:50:00,
2013-03-14 09:55:00,61.5,52.3,30.40,NE,45,8.0,8.0,72,0.00,,,0.00,meteohub,2013-03-14 14:55:00,
2013-03-14 10:00:00,62.2,52.7,30.40,NE,45,6.0,8.0,71,0.00,,,0.00,meteohub,2013-03-14 15:00:00,
2013-03-14 10:05:00,63.1,52.3,30.40,NE,45,7.0,11.0,68,0.00,,,0.00,meteohub,2013-03-14 15:05:00,
2013-03-14 10:10:00,63.5,52.3,30.40,East,90,4.0,11.0,67,0.00,,,0.00,meteohub,2013-03-14 15:10:00,
2013-03-14 10:15:00,63.9,51.8,30.40,East,90,8.0,9.0,65,0.00,,,0.00,meteohub,2013-03-14 15:15:00,
2013-03-14 10:20:00,63.7,51.6,30.40,NE,45,4.0,10.0,65,0.00,,,0.00,meteohub,2013-03-14 15:20:00,
2013-03-14 10:25:00,64.0,52.0,30.40,ENE,68,8.0,10.0,65,0.00,,,0.00,meteohub,2013-03-14 15:25:00,
2013-03-14 10:30:00,64.9,52.5,30.40,East,90,8.0,10.0,64,0.00,,,0.00,meteohub,2013-03-14 15:30:00,
2013-03-14 10:35:00,65.1,53.1,30.40,East,90,6.0,10.0,65,0.00,,,0.00,meteohub,2013-03-14 15:35:00,
2013-03-14 10:40:00,64.8,52.7,30.40,NE,45,7.0,12.0,65,0.00,,,0.00,meteohub,2013-03-14 15:40:00,
2013-03-14 10:46:00,64.9,51.6,30.40,East,90,13.0,13.0,62,0.00,,,0.00,meteohub,2013-03-14 15:46:00,
2013-03-14 10:51:00,64.9,51.6,30.40,NE,45,7.0,15.0,62,0.00,,,0.00,meteohub,2013-03-14 15:51:00,
2013-03-14 10:56:00,65.3,51.4,30.40,East,90,11.0,15.0,61,0.00,,,0.00,meteohub,2013-03-14 15:56:00,
2013-03-14 11:01:00,65.3,51.4,30.40,NE,45,10.0,15.0,61,0.00,,,0.00,meteohub,2013-03-14 16:01:00,
2013-03-14 11:06:00,65.3,51.4,30.40,NE,45,10.0,12.0,61,0.00,,,0.00,meteohub,2013-03-14 16:06:00,
2013-03-14 11:12:00,66.2,52.0,30.40,East,90,4.0,12.0,60,0.00,,,0.00,meteohub,2013-03-14 16:12:00,
2013-03-14 11:17:00,67.1,51.8,30.40,East,90,10.0,10.0,58,0.00,,,0.00,meteohub,2013-03-14 16:17:00,
2013-03-14 11:22:00,67.6,51.4,30.39,NE,45,8.0,10.0,56,0.00,,,0.00,meteohub,2013-03-14 16:22:00,
2013-03-14 11:27:00,68.4,51.1,30.40,NE,45,8.0,11.0,54,0.00,,,0.00,meteohub,2013-03-14 16:27:00,
2013-03-14 11:32:00,68.2,50.9,30.40,East,90,12.0,12.0,54,0.00,,,0.00,meteohub,2013-03-14 16:32:00,
2013-03-14 11:37:00,68.5,50.7,30.40,NE,45,11.0,12.0,53,0.00,,,0.00,meteohub,2013-03-14 16:37:00,
2013-03-14 11:42:00,68.9,50.5,30.39,East,90,8.0,12.0,52,0.00,,,0.00,meteohub,2013-03-14 16:42:00,
2013-03-14 11:47:00,69.3,50.4,30.39,ENE,68,10.0,12.0,51,0.00,,,0.00,meteohub,2013-03-14 16:47:00,
2013-03-14 11:52:00,69.8,49.3,30.40,East,90,9.0,12.0,48,0.00,,,0.00,meteohub,2013-03-14 16:52:00,
2013-03-14 11:57:00,70.3,49.1,30.39,East,90,10.0,12.0,47,0.00,,,0.00,meteohub,2013-03-14 16:57:00,
2013-03-14 12:02:00,71.1,48.6,30.39,ENE,68,11.0,12.0,45,0.00,,,0.00,meteohub,2013-03-14 17:02:00,
2013-03-14 12:07:00,70.9,48.6,30.39,East,90,7.0,14.0,45,0.00,,,0.00,meteohub,2013-03-14 17:07:00,
2013-03-14 12:12:00,71.2,48.7,30.39,East,90,14.0,14.0,45,0.00,,,0.00,meteohub,2013-03-14 17:12:00,
2013-03-14 12:17:00,71.4,47.8,30.38,East,90,7.0,16.0,43,0.00,,,0.00,meteohub,2013-03-14 17:17:00,
2013-03-14 12:22:00,71.4,47.1,30.39,NE,45,9.0,16.0,42,0.00,,,0.00,meteohub,2013-03-14 17:22:00,
2013-03-14 12:27:00,71.8,46.8,30.39,East,90,11.0,16.0,41,0.00,,,0.00,meteohub,2013-03-14 17:27:00,
2013-03-14 12:32:00,72.3,48.0,30.38,East,90,15.0,15.0,42,0.00,,,0.00,meteohub,2013-03-14 17:32:00,
2013-03-14 12:37:00,73.0,48.0,30.38,NE,45,14.0,15.0,41,0.00,,,0.00,meteohub,2013-03-14 17:37:00,
2013-03-14 12:42:00,72.9,47.8,30.38,SE,135,10.0,15.0,41,0.00,,,0.00,meteohub,2013-03-14 17:42:00,
2013-03-14 12:47:00,73.4,48.2,30.38,SE,135,10.0,15.0,41,0.00,,,0.00,meteohub,2013-03-14 17:47:00,
2013-03-14 12:53:00,73.6,48.4,30.38,SE,135,12.0,14.0,41,0.00,,,0.00,meteohub,2013-03-14 17:53:00,
2013-03-14 12:58:00,74.1,47.7,30.37,NE,45,10.0,14.0,39,0.00,,,0.00,meteohub,2013-03-14 17:58:00,
2013-03-14 13:03:00,74.7,47.3,30.37,North,0,5.0,14.0,38,0.00,,,0.00,meteohub,2013-03-14 18:03:00,
2013-03-14 13:08:00,74.5,47.1,30.37,East,90,9.0,13.0,38,0.00,,,0.00,meteohub,2013-03-14 18:08:00,
2013-03-14 13:13:00,74.5,47.1,30.37,NE,45,8.0,17.0,38,0.00,,,0.00,meteohub,2013-03-14 18:13:00,
2013-03-14 13:18:00,75.2,47.8,30.36,NE,45,5.0,17.0,38,0.00,,,0.00,meteohub,2013-03-14 18:18:00,
2013-03-14 13:23:00,76.1,47.1,30.35,NE,45,9.0,15.0,36,0.00,,,0.00,meteohub,2013-03-14 18:23:00,
2013-03-14 13:28:00,75.4,47.3,30.35,East,90,13.0,14.0,37,0.00,,,0.00,meteohub,2013-03-14 18:28:00,
2013-03-14 13:33:00,75.4,46.6,30.35,SE,135,12.0,14.0,36,0.00,,,0.00,meteohub,2013-03-14 18:33:00,
2013-03-14 13:38:00,75.0,46.9,30.34,East,90,9.0,14.0,37,0.00,,,0.00,meteohub,2013-03-14 18:38:00,
2013-03-14 13:43:00,75.7,46.2,30.34,East,90,10.0,14.0,35,0.00,,,0.00,meteohub,2013-03-14 18:43:00,
2013-03-14 13:48:00,75.7,46.9,30.34,East,90,9.0,14.0,36,0.00,,,0.00,meteohub,2013-03-14 18:48:00,
2013-03-14 13:53:00,76.5,46.8,30.34,East,90,10.0,17.0,35,0.00,,,0.00,meteohub,2013-03-14 18:53:00,
2013-03-14 13:58:00,77.0,46.4,30.33,East,90,11.0,17.0,34,0.00,,,0.00,meteohub,2013-03-14 18:58:00,
2013-03-14 14:03:00,76.8,46.4,30.33,NE,45,8.0,13.0,34,0.00,,,0.00,meteohub,2013-03-14 19:03:00,
2013-03-14 14:09:00,76.3,45.9,30.32,East,90,9.0,13.0,34,0.00,,,0.00,meteohub,2013-03-14 19:09:00,
2013-03-14 14:14:00,77.0,46.4,30.32,East,90,12.0,15.0,34,0.00,,,0.00,meteohub,2013-03-14 19:14:00,
2013-03-14 14:19:00,77.5,46.2,30.32,East,90,11.0,15.0,33,0.00,,,0.00,meteohub,2013-03-14 19:19:00,
2013-03-14 14:24:00,76.1,46.4,30.32,East,90,12.0,15.0,35,0.00,,,0.00,meteohub,2013-03-14 19:24:00,
2013-03-14 14:29:00,77.0,45.7,30.32,East,90,6.0,15.0,33,0.00,,,0.00,meteohub,2013-03-14 19:29:00,
2013-03-14 14:34:00,78.3,46.8,30.32,East,90,7.0,17.0,33,0.00,,,0.00,meteohub,2013-03-14 19:34:00,
2013-03-14 14:39:00,78.6,45.5,30.31,NE,45,7.0,17.0,31,0.00,,,0.00,meteohub,2013-03-14 19:39:00,
2013-03-14 14:44:00,78.4,46.2,30.31,ESE,113,11.0,17.0,32,0.00,,,0.00,meteohub,2013-03-14 19:44:00,
2013-03-14 14:49:00,79.2,46.8,30.31,East,90,12.0,13.0,32,0.00,,,0.00,meteohub,2013-03-14 19:49:00,
2013-03-14 14:54:00,79.2,44.2,30.30,NE,45,9.0,12.0,29,0.00,,,0.00,meteohub,2013-03-14 19:54:00,
2013-03-14 14:59:00,79.0,45.0,30.30,SE,135,12.0,12.0,30,0.00,,,0.00,meteohub,2013-03-14 19:59:00,
2013-03-14 15:04:00,78.8,43.0,30.30,ENE,68,8.0,12.0,28,0.00,,,0.00,meteohub,2013-03-14 20:04:00,
2013-03-14 15:09:00,78.3,44.2,30.29,East,90,12.0,14.0,30,0.00,,,0.00,meteohub,2013-03-14 20:09:00,
2013-03-14 15:15:00,78.8,42.1,30.29,North,0,11.0,14.0,27,0.00,,,0.00,meteohub,2013-03-14 20:15:00,
2013-03-14 15:20:00,79.0,43.2,30.29,East,90,9.0,17.0,28,0.00,,,0.00,meteohub,2013-03-14 20:20:00,
2013-03-14 15:25:00,79.2,44.2,30.29,ENE,68,7.0,17.0,29,0.00,,,0.00,meteohub,2013-03-14 20:25:00,
2013-03-14 15:30:00,78.8,43.0,30.29,East,90,14.0,17.0,28,0.00,,,0.00,meteohub,2013-03-14 20:30:00,
2013-03-14 15:35:00,78.8,42.1,30.28,East,90,12.0,15.0,27,0.00,,,0.00,meteohub,2013-03-14 20:35:00,
2013-03-14 15:40:00,79.3,42.4,30.28,East,90,10.0,14.0,27,0.00,,,0.00,meteohub,2013-03-14 20:40:00,
2013-03-14 15:45:00,79.2,43.2,30.28,South,180,11.0,13.0,28,0.00,,,0.00,meteohub,2013-03-14 20:45:00,
2013-03-14 15:50:00,79.7,43.7,30.28,SE,135,8.0,13.0,28,0.00,,,0.00,meteohub,2013-03-14 20:50:00,
2013-03-14 15:55:00,80.2,42.3,30.27,East,90,7.0,15.0,26,0.00,,,0.00,meteohub,2013-03-14 20:55:00,
2013-03-14 16:00:00,79.7,42.8,30.27,SE,135,9.0,16.0,27,0.00,,,0.00,meteohub,2013-03-14 21:00:00,
2013-03-14 16:05:00,80.2,43.2,30.27,NE,45,8.0,16.0,27,0.00,,,0.00,meteohub,2013-03-14 21:05:00,
2013-03-14 16:10:00,79.7,42.8,30.27,East,90,11.0,16.0,27,0.00,,,0.00,meteohub,2013-03-14 21:10:00,
2013-03-14 16:15:00,80.1,42.1,30.27,East,90,11.0,15.0,26,0.00,,,0.00,meteohub,2013-03-14 21:15:00,
2013-03-14 16:20:00,79.5,42.6,30.27,East,90,8.0,15.0,27,0.00,,,0.00,meteohub,2013-03-14 21:20:00,
2013-03-14 16:25:00,79.7,43.7,30.26,East,90,10.0,15.0,28,0.00,,,0.00,meteohub,2013-03-14 21:25:00,
2013-03-14 16:30:00,80.1,42.1,30.26,NE,45,8.0,11.0,26,0.00,,,0.00,meteohub,2013-03-14 21:30:00,
2013-03-14 16:35:00,80.4,41.4,30.26,NE,45,12.0,15.0,25,0.00,,,0.00,meteohub,2013-03-14 21:35:00,
2013-03-14 16:40:00,80.1,41.0,30.26,SSE,158,12.0,15.0,25,0.00,,,0.00,meteohub,2013-03-14 21:40:00,
2013-03-14 16:45:00,79.7,40.8,30.26,SE,135,9.0,12.0,25,0.00,,,0.00,meteohub,2013-03-14 21:45:00,
2013-03-14 16:51:00,79.7,40.8,30.25,East,90,8.0,13.0,25,0.00,,,0.00,meteohub,2013-03-14 21:51:00,
2013-03-14 16:56:00,80.2,41.2,30.25,SE,135,10.0,13.0,25,0.00,,,0.00,meteohub,2013-03-14 21:56:00,
2013-03-14 17:01:00,80.8,40.6,30.25,East,90,7.0,13.0,24,0.00,,,0.00,meteohub,2013-03-14 22:01:00,
2013-03-14 17:06:00,81.1,39.7,30.25,SSE,158,9.0,11.0,23,0.00,,,0.00,meteohub,2013-03-14 22:06:00,
2013-03-14 17:11:00,80.4,40.3,30.25,East,90,8.0,16.0,24,0.00,,,0.00,meteohub,2013-03-14 22:11:00,
2013-03-14 17:16:00,80.2,40.1,30.25,East,90,9.0,16.0,24,0.00,,,0.00,meteohub,2013-03-14 22:16:00,
2013-03-14 17:22:00,81.1,38.7,30.25,SE,135,11.0,16.0,22,0.00,,,0.00,meteohub,2013-03-14 22:22:00,
2013-03-14 17:27:00,80.6,38.3,30.25,East,90,7.0,15.0,22,0.00,,,0.00,meteohub,2013-03-14 22:27:00,
2013-03-14 17:32:00,80.6,39.4,30.25,SSE,158,11.0,15.0,23,0.00,,,0.00,meteohub,2013-03-14 22:32:00,
2013-03-14 17:37:00,80.6,39.4,30.25,SSE,158,11.0,15.0,23,0.00,,,0.00,meteohub,2013-03-14 22:37:00,
2013-03-14 17:42:00,80.4,40.3,30.25,East,90,9.0,12.0,24,0.00,,,0.00,meteohub,2013-03-14 22:42:00,
2013-03-14 17:47:00,80.1,40.1,30.25,NE,45,12.0,12.0,24,0.00,,,0.00,meteohub,2013-03-14 22:47:00,
2013-03-14 17:52:00,80.1,40.1,30.25,East,90,13.0,13.0,24,0.00,,,0.00,meteohub,2013-03-14 22:52:00,
2013-03-14 17:57:00,79.9,39.9,30.25,East,90,12.0,13.0,24,0.00,,,0.00,meteohub,2013-03-14 22:57:00,
2013-03-14 18:02:00,79.5,39.6,30.25,East,90,8.0,13.0,24,0.00,,,0.00,meteohub,2013-03-14 23:02:00,
2013-03-14 18:07:00,79.5,39.6,30.25,North,0,9.0,13.0,24,0.00,,,0.00,meteohub,2013-03-14 23:07:00,
2013-03-14 18:12:00,79.9,39.9,30.25,SE,135,10.0,13.0,24,0.00,,,0.00,meteohub,2013-03-14 23:12:00,
2013-03-14 18:17:00,79.5,40.6,30.25,SE,135,6.0,13.0,25,0.00,,,0.00,meteohub,2013-03-14 23:17:00,
2013-03-14 18:22:00,79.2,39.2,30.25,East,90,8.0,13.0,24,0.00,,,0.00,meteohub,2013-03-14 23:22:00,
2013-03-14 18:27:00,78.1,39.4,30.24,NE,45,10.0,13.0,25,0.00,,,0.00,meteohub,2013-03-14 23:27:00,
2013-03-14 18:33:00,77.9,40.3,30.25,East,90,10.0,13.0,26,0.00,,,0.00,meteohub,2013-03-14 23:33:00,
2013-03-14 18:38:00,77.5,41.0,30.25,ENE,68,11.0,13.0,27,0.00,,,0.00,meteohub,2013-03-14 23:38:00,
2013-03-14 18:43:00,77.2,41.5,30.24,East,90,5.0,12.0,28,0.00,,,0.00,meteohub,2013-03-14 23:43:00,
2013-03-14 18:48:00,76.6,42.8,30.24,SE,135,10.0,11.0,30,0.00,,,0.00,meteohub,2013-03-14 23:48:00,
2013-03-14 18:53:00,76.1,41.5,30.24,East,90,6.0,11.0,29,0.00,,,0.00,meteohub,2013-03-14 23:53:00,
2013-03-14 18:58:00,76.1,42.4,30.25,NE,45,7.0,10.0,30,0.00,,,0.00,meteohub,2013-03-14 23:58:00,
2013-03-14 19:03:00,75.9,41.4,30.24,East,90,8.0,10.0,29,0.00,,,0.00,meteohub,2013-03-15 00:03:00,
2013-03-14 19:08:00,75.2,40.8,30.24,East,90,11.0,11.0,29,0.00,,,0.00,meteohub,2013-03-15 00:08:00,
2013-03-14 19:14:00,75.0,41.5,30.24,NE,45,6.0,11.0,30,0.00,,,0.00,meteohub,2013-03-15 00:14:00,
2013-03-14 19:19:00,74.8,41.4,30.24,East,90,8.0,11.0,30,0.00,,,0.00,meteohub,2013-03-15 00:19:00,
2013-03-14 19:24:00,74.1,41.5,30.24,ENE,68,5.0,11.0,31,0.00,,,0.00,meteohub,2013-03-15 00:24:00,
2013-03-14 19:29:00,73.8,42.1,30.24,NE,45,4.0,9.0,32,0.00,,,0.00,meteohub,2013-03-15 00:29:00,
2013-03-14 19:34:00,73.2,41.5,30.24,East,90,3.0,9.0,32,0.00,,,0.00,meteohub,2013-03-15 00:34:00,
2013-03-14 19:39:00,72.5,41.0,30.25,NE,45,4.0,8.0,32,0.00,,,0.00,meteohub,2013-03-15 00:39:00,
2013-03-14 19:44:00,72.0,41.4,30.25,NE,45,3.0,8.0,33,0.00,,,0.00,meteohub,2013-03-15 00:44:00,
2013-03-14 19:49:00,71.4,41.5,30.25,NE,45,4.0,5.0,34,0.00,,,0.00,meteohub,2013-03-15 00:49:00,
2013-03-14 19:54:00,70.9,41.2,30.25,NE,45,3.0,5.0,34,0.00,,,0.00,meteohub,2013-03-15 00:54:00,
2013-03-14 19:59:00,70.5,41.5,30.24,East,90,4.0,5.0,35,0.00,,,0.00,meteohub,2013-03-15 00:59:00,
2013-03-14 20:04:00,70.0,41.0,30.25,NE,45,2.0,5.0,35,0.00,,,0.00,meteohub,2013-03-15 01:04:00,
2013-03-14 20:09:00,69.4,42.1,30.24,NE,45,2.0,4.0,37,0.00,,,0.00,meteohub,2013-03-15 01:09:00,
2013-03-14 20:14:00,69.1,41.7,30.25,NE,45,3.0,4.0,37,0.00,,,0.00,meteohub,2013-03-15 01:14:00,
2013-03-14 20:20:00,68.7,41.4,30.25,East,90,2.0,4.0,37,0.00,,,0.00,meteohub,2013-03-15 01:20:00,
2013-03-14 20:24:00,68.5,41.9,30.25,NE,45,3.0,4.0,38,0.00,,,0.00,meteohub,2013-03-15 01:24:00,
2013-03-14 20:30:00,68.4,41.7,30.25,NE,45,3.0,3.0,38,0.00,,,0.00,meteohub,2013-03-15 01:30:00,
2013-03-14 20:35:00,68.2,42.3,30.24,NE,45,3.0,4.0,39,0.00,,,0.00,meteohub,2013-03-15 01:35:00,
2013-03-14 20:40:00,68.0,42.1,30.24,NE,45,4.0,4.0,39,0.00,,,0.00,meteohub,2013-03-15 01:40:00,
2013-03-14 20:45:00,68.0,42.1,30.25,NE,45,3.0,5.0,39,0.00,,,0.00,meteohub,2013-03-15 01:45:00,
2013-03-14 20:50:00,67.8,43.3,30.25,NNE,23,3.0,5.0,41,0.00,,,0.00,meteohub,2013-03-15 01:50:00,
2013-03-14 20:55:00,67.6,43.2,30.25,NE,45,4.0,4.0,41,0.00,,,0.00,meteohub,2013-03-15 01:55:00,
2013-03-14 21:00:00,67.5,43.0,30.24,NE,45,3.0,5.0,41,0.00,,,0.00,meteohub,2013-03-15 02:00:00,
2013-03-14 21:05:00,67.5,43.0,30.24,NE,45,3.0,5.0,41,0.00,,,0.00,meteohub,2013-03-15 02:05:00,
2013-03-14 21:10:00,67.5,43.0,30.24,NE,45,3.0,5.0,41,0.00,,,0.00,meteohub,2013-03-15 02:10:00,
2013-03-14 21:15:00,67.3,43.3,30.25,NE,45,5.0,5.0,42,0.00,,,0.00,meteohub,2013-03-15 02:15:00,
2013-03-14 21:20:00,67.3,43.3,30.25,NE,45,3.0,5.0,42,0.00,,,0.00,meteohub,2013-03-15 02:20:00,
2013-03-14 21:25:00,67.1,43.2,30.25,NE,45,3.0,5.0,42,0.00,,,0.00,meteohub,2013-03-15 02:25:00,
2013-03-14 21:30:00,66.9,43.2,30.25,ENE,68,3.0,5.0,42,0.00,,,0.00,meteohub,2013-03-15 02:30:00,
2013-03-14 21:35:00,66.7,43.5,30.25,East,90,4.0,4.0,43,0.00,,,0.00,meteohub,2013-03-15 02:35:00,
2013-03-14 21:40:00,66.7,43.5,30.24,NE,45,3.0,4.0,43,0.00,,,0.00,meteohub,2013-03-15 02:40:00,
2013-03-14 21:45:00,66.6,43.3,30.25,NE,45,3.0,4.0,43,0.00,,,0.00,meteohub,2013-03-15 02:45:00,
2013-03-14 21:50:00,66.4,43.9,30.25,NE,45,3.0,4.0,44,0.00,,,0.00,meteohub,2013-03-15 02:50:00,
2013-03-14 21:55:00,66.2,43.7,30.25,NE,45,3.0,4.0,44,0.00,,,0.00,meteohub,2013-03-15 02:55:00,
2013-03-14 22:00:00,66.0,44.1,30.25,NE,45,4.0,4.0,45,0.00,,,0.00,meteohub,2013-03-15 03:00:00,
2013-03-14 22:05:00,66.2,43.7,30.25,NE,45,3.0,4.0,44,0.00,,,0.00,meteohub,2013-03-15 03:05:00,
2013-03-14 22:10:00,65.8,43.9,30.25,NE,45,4.0,4.0,45,0.00,,,0.00,meteohub,2013-03-15 03:10:00,
2013-03-14 22:16:00,65.5,44.2,30.25,NE,45,3.0,4.0,46,0.00,,,0.00,meteohub,2013-03-15 03:16:00,
2013-03-14 22:21:00,65.1,43.9,30.25,NE,45,5.0,5.0,46,0.00,,,0.00,meteohub,2013-03-15 03:21:00,
2013-03-14 22:26:00,65.1,43.9,30.25,East,90,7.0,7.0,46,0.00,,,0.00,meteohub,2013-03-15 03:26:00,
2013-03-14 22:31:00,65.7,45.0,30.25,NE,45,5.0,8.0,47,0.00,,,0.00,meteohub,2013-03-15 03:31:00,
2013-03-14 22:36:00,65.7,45.5,30.25,NE,45,5.0,8.0,48,0.00,,,0.00,meteohub,2013-03-15 03:36:00,
2013-03-14 22:42:00,65.7,46.6,30.25,East,90,13.0,13.0,50,0.00,,,0.00,meteohub,2013-03-15 03:42:00,
2013-03-14 22:47:00,65.7,47.1,30.25,East,90,4.0,13.0,51,0.00,,,0.00,meteohub,2013-03-15 03:47:00,
2013-03-14 22:52:00,65.3,47.7,30.25,NE,45,6.0,13.0,53,0.00,,,0.00,meteohub,2013-03-15 03:52:00,
2013-03-14 22:57:00,64.9,47.8,30.25,NE,45,8.0,13.0,54,0.00,,,0.00,meteohub,2013-03-15 03:57:00,
2013-03-14 23:00:00,64.8,48.2,30.26,NE,45,6.0,13.0,55,0.00,,,0.00,meteohub,2013-03-15 04:00:00,
2013-03-14 23:01:00,64.8,48.2,30.26,NE,45,6.0,10.0,55,0.00,,,0.00,meteohub,2013-03-15 04:01:00,
2013-03-14 23:06:00,64.8,48.2,30.26,NE,45,6.0,10.0,55,0.00,,,0.00,meteohub,2013-03-15 04:06:00,
2013-03-14 23:11:00,64.0,48.0,30.26,East,90,5.0,8.0,56,0.00,,,0.00,meteohub,2013-03-15 04:11:00,
2013-03-14 23:16:00,64.0,48.9,30.26,East,90,6.0,7.0,58,0.00,,,0.00,meteohub,2013-03-15 04:16:00,
2013-03-14 23:21:00,64.0,49.5,30.26,ENE,68,5.0,7.0,59,0.00,,,0.00,meteohub,2013-03-15 04:21:00,
2013-03-14 23:26:00,64.0,49.8,30.26,NE,45,4.0,9.0,60,0.00,,,0.00,meteohub,2013-03-15 04:26:00,
2013-03-14 23:31:00,63.7,50.0,30.26,NE,45,5.0,9.0,61,0.00,,,0.00,meteohub,2013-03-15 04:31:00,
2013-03-14 23:36:00,63.5,49.8,30.27,East,90,7.0,9.0,61,0.00,,,0.00,meteohub,2013-03-15 04:36:00,
2013-03-14 23:41:00,63.3,50.0,30.26,NE,45,5.0,7.0,62,0.00,,,0.00,meteohub,2013-03-15 04:41:00,
2013-03-14 23:47:00,63.3,50.0,30.26,ENE,68,4.0,7.0,62,0.00,,,0.00,meteohub,2013-03-15 04:47:00,
2013-03-14 23:52:00,63.1,50.4,30.26,SE,135,4.0,7.0,63,0.00,,,0.00,meteohub,2013-03-15 04:52:00,
2013-03-14 23:57:00,63.0,50.2,30.26,East,90,5.0,6.0,63,0.00,,,0.00,meteohub,2013-03-15 04:57:00,